When you browse on this site, cookies collect data to enhance your experience and personalize the content and advertising you see.
Visit our Privacy Policy to learn more. By continuing to use the site, you agree to this use of cookies and data.

Hourly Weather Obuhov

Today, 15 August, Saturday

Time Temperature Precipitation Wind Pressure Humidity
00:00 +12°C° 0 mm 1 mps 749 mmHg 72%
01:00 +11°C° 0 mm 0 mps 750 mmHg 73%
02:00 +12°C° 0 mm 1 mps 750 mmHg 74%
03:00 +11°C° 0 mm 1 mps 750 mmHg 76%
04:00 +11°C° 0 mm 1 mps 750 mmHg 78%
05:00 +11°C° 0 mm 1 mps 750 mmHg 79%
06:00 +13°C° 0 mm 1 mps 750 mmHg 73%
07:00 +15°C° 0 mm 1 mps 750 mmHg 67%
08:00 +18°C° 0 mm 1 mps 750 mmHg 61%
09:00 +18°C° 0 mm 2 mps 750 mmHg 56%
10:00 +19°C° 0 mm 2 mps 750 mmHg 51%
11:00 +21°C° 0 mm 2 mps 751 mmHg 47%
12:00 +21°C° 0 mm 2 mps 750 mmHg 45%
13:00 +23°C° 0 mm 2 mps 750 mmHg 43%
14:00 +24°C° 0 mm 2 mps 750 mmHg 41%
15:00 +24°C° 0 mm 2 mps 750 mmHg 42%
16:00 +23°C° 0 mm 2 mps 749 mmHg 44%
17:00 +23°C° 0 mm 2 mps 749 mmHg 45%
18:00 +20°C° 0 mm 2 mps 749 mmHg 51%
19:00 +19°C° 0 mm 1 mps 749 mmHg 56%
20:00 +16°C° 0 mm 1 mps 749 mmHg 62%
21:00 +16°C° 0 mm 1 mps 749 mmHg 64%
22:00 +15°C° 0 mm 1 mps 749 mmHg 67%
23:00 +14°C° 0 mm 1 mps 749 mmHg 69%

Tomorrow, 16 August, Sunday

Time Temperature Precipitation Wind Pressure Humidity
00:00 +14°C° 0 mm 1 mps 749 mmHg 71%
01:00 +14°C° 0 mm 1 mps 749 mmHg 73%
02:00 +13°C° 0 mm 1 mps 749 mmHg 75%
03:00 +12°C° 0 mm 0 mps 749 mmHg 76%
04:00 +12°C° 0 mm 0 mps 749 mmHg 77%
05:00 +11°C° 0 mm 0 mps 749 mmHg 78%
06:00 +14°C° 0 mm 0 mps 749 mmHg 71%
07:00 +18°C° 0 mm 1 mps 749 mmHg 64%
08:00 +20°C° 0 mm 1 mps 749 mmHg 58%
09:00 +22°C° 0 mm 1 mps 750 mmHg 53%
10:00 +23°C° 0 mm 1 mps 750 mmHg 48%
11:00 +25°C° 0 mm 1 mps 750 mmHg 44%
12:00 +25°C° 0 mm 1 mps 750 mmHg 42%
13:00 +26°C° 0 mm 1 mps 749 mmHg 41%
14:00 +26°C° 0 mm 2 mps 749 mmHg 39%
15:00 +26°C° 0 mm 2 mps 749 mmHg 41%
16:00 +26°C° 0 mm 2 mps 749 mmHg 43%
17:00 +26°C° 0 mm 2 mps 749 mmHg 45%
18:00 +24°C° 0 mm 2 mps 749 mmHg 50%
19:00 +22°C° 0 mm 1 mps 749 mmHg 56%
20:00 +20°C° 0 mm 1 mps 749 mmHg 61%
21:00 +20°C° 0 mm 1 mps 749 mmHg 63%
22:00 +19°C° 0 mm 1 mps 749 mmHg 64%
23:00 +19°C° 0 mm 1 mps 749 mmHg 66%

Day after tomorrow, 17 August, Monday

Time Temperature Precipitation Wind Pressure Humidity
00:00 +18°C° 0 mm 1 mps 749 mmHg 67%
01:00 +17°C° 0 mm 2 mps 749 mmHg 69%
02:00 +17°C° 0 mm 2 mps 749 mmHg 70%
03:00 +16°C° 0 mm 2 mps 749 mmHg 71%
04:00 +16°C° 0 mm 2 mps 749 mmHg 73%
05:00 +16°C° 0 mm 1 mps 749 mmHg 74%
06:00 +18°C° 0 mm 2 mps 749 mmHg 69%
07:00 +20°C° 0 mm 2 mps 749 mmHg 64%
08:00 +21°C° 0 mm 2 mps 749 mmHg 59%
09:00 +24°C° 0 mm 2 mps 749 mmHg 55%
10:00 +25°C° 0 mm 2 mps 749 mmHg 51%
11:00 +27°C° 0 mm 1 mps 749 mmHg 46%
12:00 +28°C° 0 mm 1 mps 749 mmHg 44%
13:00 +28°C° 0 mm 1 mps 748 mmHg 42%
14:00 +29°C° 0 mm 1 mps 748 mmHg 39%
15:00 +29°C° 0 mm 1 mps 748 mmHg 40%
16:00 +29°C° 0 mm 1 mps 747 mmHg 40%
17:00 +28°C° 0 mm 1 mps 747 mmHg 41%
18:00 +26°C° 0 mm 1 mps 747 mmHg 45%
19:00 +24°C° 0 mm 1 mps 747 mmHg 50%
20:00 +20°C° 0 mm 0 mps 747 mmHg 54%
21:00 +21°C° 0 mm 1 mps 747 mmHg 55%
22:00 +21°C° 0 mm 1 mps 747 mmHg 56%
23:00 +21°C° 0 mm 1 mps 747 mmHg 57%

18 August, Tuesday

Time Temperature Precipitation Wind Pressure Humidity
00:00 +20°C° 0 mm 1 mps 747 mmHg 58%
01:00 +19°C° 0 mm 2 mps 747 mmHg 60%
02:00 +18°C° 0 mm 2 mps 746 mmHg 61%
03:00 +18°C° 0 mm 2 mps 746 mmHg 61%
04:00 +17°C° 0 mm 2 mps 746 mmHg 62%
05:00 +17°C° 0 mm 2 mps 746 mmHg 63%
06:00 +19°C° 0 mm 2 mps 745 mmHg 58%
07:00 +21°C° 0 mm 3 mps 745 mmHg 53%
08:00 +24°C° 0 mm 3 mps 745 mmHg 48%
09:00 +26°C° 0 mm 3 mps 745 mmHg 43%
10:00 +28°C° 0 mm 4 mps 745 mmHg 38%
11:00 +30°C° 0 mm 4 mps 745 mmHg 33%
12:00 +30°C° 0 mm 4 mps 745 mmHg 32%
13:00 +32°C° 0 mm 4 mps 744 mmHg 31%
14:00 +32°C° 0 mm 4 mps 744 mmHg 30%
15:00 +32°C° 0 mm 4 mps 744 mmHg 33%
16:00 +31°C° 0 mm 3 mps 743 mmHg 35%
17:00 +30°C° 0 mm 3 mps 743 mmHg 38%
18:00 +28°C° 0 mm 3 mps 743 mmHg 40%
19:00 +26°C° 0 mm 3 mps 743 mmHg 42%
20:00 +24°C° 0 mm 3 mps 743 mmHg 44%
21:00 +24°C° 0 mm 3 mps 743 mmHg 43%
22:00 +22°C° 0 mm 3 mps 743 mmHg 42%
23:00 +21°C° 0 mm 3 mps 742 mmHg 40%

19 August, Wednesday

Time Temperature Precipitation Wind Pressure Humidity
00:00 +21°C° 0 mm 3 mps 742 mmHg 41%
01:00 +20°C° 0 mm 3 mps 742 mmHg 42%
02:00 +20°C° 0 mm 4 mps 742 mmHg 42%
03:00 +19°C° 0 mm 3 mps 742 mmHg 43%
04:00 +19°C° 0 mm 3 mps 742 mmHg 43%
05:00 +19°C° 0 mm 3 mps 741 mmHg 44%
06:00 +20°C° 0 mm 4 mps 742 mmHg 46%
07:00 +22°C° 0 mm 4 mps 742 mmHg 47%
08:00 +23°C° 0 mm 4 mps 742 mmHg 49%
09:00 +26°C° 0 mm 4 mps 742 mmHg 47%
10:00 +28°C° 0 mm 5 mps 742 mmHg 45%
11:00 +29°C° 0 mm 5 mps 742 mmHg 42%
12:00 +30°C° 0 mm 5 mps 742 mmHg 41%
13:00 +32°C° 0 mm 5 mps 741 mmHg 40%
14:00 +33°C° 0 mm 5 mps 741 mmHg 39%
15:00 +32°C° 0 mm 4 mps 741 mmHg 42%
16:00 +31°C° 0 mm 3 mps 741 mmHg 45%
17:00 +30°C° 0 mm 2 mps 741 mmHg 49%
18:00 +28°C° 0.3 mm 2 mps 741 mmHg 56%
19:00 +26°C° 0.3 mm 2 mps 741 mmHg 64%
20:00 +24°C° 0.3 mm 2 mps 741 mmHg 72%
21:00 +23°C° 0.5 mm 1 mps 741 mmHg 76%
22:00 +22°C° 0.5 mm 1 mps 741 mmHg 80%
23:00 +20°C° 0.5 mm 0 mps 741 mmHg 84%

20 August, Thursday

Time Temperature Precipitation Wind Pressure Humidity
00:00 +21°C° 0.2 mm 1 mps 741 mmHg 85%
01:00 +21°C° 0.2 mm 1 mps 741 mmHg 86%
02:00 +21°C° 0.2 mm 1 mps 741 mmHg 87%
03:00 +21°C° 0.3 mm 1 mps 741 mmHg 88%
04:00 +21°C° 0.3 mm 1 mps 741 mmHg 89%
05:00 +20°C° 0.3 mm 2 mps 741 mmHg 91%
06:00 +21°C° 0.1 mm 1 mps 741 mmHg 88%
07:00 +22°C° 0.1 mm 1 mps 741 mmHg 85%
08:00 +23°C° 0.1 mm 1 mps 741 mmHg 82%
09:00 +23°C° 0 mm 1 mps 742 mmHg 80%
10:00 +24°C° 0 mm 1 mps 742 mmHg 78%
11:00 +24°C° 0 mm 1 mps 742 mmHg 75%
12:00 +25°C° 0.2 mm 1 mps 742 mmHg 70%
13:00 +26°C° 0.2 mm 2 mps 742 mmHg 65%
14:00 +27°C° 0.2 mm 2 mps 742 mmHg 60%
15:00 +25°C° 0.6 mm 2 mps 742 mmHg 67%
16:00 +24°C° 0.6 mm 3 mps 742 mmHg 74%
17:00 +22°C° 0.6 mm 3 mps 742 mmHg 80%
18:00 +21°C° 0 mm 3 mps 742 mmHg 82%
19:00 +21°C° 0 mm 3 mps 743 mmHg 84%
20:00 +20°C° 0 mm 2 mps 743 mmHg 86%
21:00 +20°C° 0 mm 2 mps 743 mmHg 87%
22:00 +19°C° 0 mm 2 mps 743 mmHg 88%
23:00 +19°C° 0 mm 2 mps 743 mmHg 88%
Show more